This demonstration page uses our WeatherBlox Daily Observations layout. Learn more.

Left ArrowRight Arrow

Hourly Observations for July 24, 2021

Temp ( °F °C ) Dew Point ( °F °C ) Humidity (%) Winds ( mph kmh ) Pressure ( in mb ) Visibility ( mi km ) Precip ( " mm )
12:53 am 00:53 Clear 67 19.4 66 18.9 97 97 N N/A 30.10 1019 10 16 N/A
1:53 am 01:53 Clear 66 18.9 65 18.3 96 96 N N/A 30.09 1019 10 16 N/A
2:53 am 02:53 Clear 65 18.3 65 18.3 100 100 N N/A 30.07 1018 10 16 N/A
3:53 am 03:53 Clear 64 17.8 64 17.8 100 100 N N/A 30.06 1018 7 11 N/A
4:53 am 04:53 Clear with Mist and Fog 64 17.8 64 17.8 100 100 N N/A 30.06 1018 5 8 N/A
5:53 am 05:53 Clear with Mist and Fog 63 17.2 63 17.2 100 100 N N/A 30.06 1018 6 10 N/A
6:43 am 06:43 Sunny with Mist and Fog 63 17.2 63 17.2 100 100 N N/A 30.07 1018 3 4 N/A
6:51 am 06:51 Sunny 63 17 63 17 100 100 N N/A 30.07 1018 7 11 N/A
6:53 am 06:53 Sunny with Mist and Fog 63 17.2 63 17.2 100 100 N N/A 30.06 1018 6 10 N/A
7:53 am 07:53 Sunny with Mist and Fog 67 19.4 66 18.9 97 97 N N/A 30.06 1018 6 10 N/A
8:53 am 08:53 Sunny 73 22.8 67 19.4 81 81 N N/A 30.07 1018 10 16 N/A
9:53 am 09:53 Sunny 77 25 67 19.4 71 71 N N/A 30.07 1018 10 16 N/A
10:53 am 10:53 Sunny 80 26.7 67 19.4 64 64 VRB 3 6 30.06 1018 10 16 N/A
11:53 am 11:53 Sunny 82 27.8 68 20 63 63 VRB 6 9 30.06 1018 10 16 N/A
12:53 pm 12:53 Sunny 84 28.9 70 21.1 63 63 VRB 5 7 30.05 1018 10 16 N/A
1:53 pm 13:53 Sunny 85 29.4 69 20.6 59 59 N N/A 30.03 1017 10 16 N/A
2:53 pm 14:53 Mostly Sunny 86 30 70 21.1 59 59 W 5 7 30.01 1016 10 16 N/A
3:53 pm 15:53 Mostly Cloudy 87 30.6 69 20.6 55 55 VRB 5 7 29.99 1016 10 16 N/A
4:53 pm 16:53 Mostly Sunny 87 30.6 70 21.1 57 57 VRB 5 7 29.96 1015 10 16 N/A
5:53 pm 17:53 Mostly Sunny 86 30 70 21.1 59 59 SW 8 13 29.95 1014 9 14 N/A
6:53 pm 18:53 Mostly Sunny 85 29.4 70 21.1 61 61 VRB 5 7 29.93 1014 10 16 N/A
7:53 pm 19:53 Mostly Sunny 82 27.8 70 21.1 67 67 VRB 3 6 29.94 1014 9 14 N/A
8:53 pm 20:53 Sunny 81 27.2 70 21.1 69 69 N N/A 29.92 1013 9 14 N/A
9:53 pm 21:53 Mostly Clear 76 24.4 71 21.7 85 85 N N/A 29.92 1013 8 13 N/A
10:53 pm 22:53 Partly Cloudy 79 26.1 70 21.1 74 74 N N/A 29.93 1014 10 16 N/A
11:53 pm 23:53 Clear 76 24.4 71 21.7 85 85 N N/A 29.94 1014 10 16 N/A

Powered by AerisWeather